Weather History for Findlay, OH

Change the Weather History Date:

Sunday, March 3, 2013

  Actual Average Record
Temperature  
Mean Temperature 26 °F -  
Max Temperature 30 °F 42 °F 69 °F (1974)
Min Temperature 21 °F 26 °F 0 °F (2014)
Degree Days  
Heating Degree Days 40    
Moisture  
Dew Point 15 °F    
Average Humidity 66    
Maximum Humidity 78    
Minimum Humidity 54    
Precipitation  
Precipitation 0.00 in - - ()
Sea Level Pressure  
Sea Level Pressure 30.04 in    
Wind  
Wind Speed 8 mph (NW)    
Max Wind Speed 13 mph    
Max Gust Speed -    
Visibility 10 miles    
Events Snow    
Averages and records for this station are not official NWS values.
T = Trace of Precipitation, MM = Missing Value Source: NWS Daily Summary

Daily Weather History Graph

Daily Weather History Graph

Search for Another Location

Airport:

Trip Planner

Search our weather history database for the weather conditions in past years. The results will help you decide how hot, cold, wet, or windy it might be!

Date:

Astronomy

Mar. 03, 2013 Rise Set
Actual Time 7:05 AM EST 6:28 PM EST
Civil Twilight 6:37 AM EST 6:55 PM EST
Nautical Twilight 6:06 AM EST 7:27 PM EST
Astronomical Twilight 5:34 AM EST 7:59 PM EST
Moon 12:08 AM EST (3/3) 10:16 AM EST (3/3)
Length of Visible Light 12h 17m
Length of Day
11h 22m
Waning Gibbous, 64% of the Moon is Illuminated
Mar 3
Waning Gibbous
Mar 4
Last Quarter
Mar 11
New
Mar 19
First Quarter
Mar 27
Full

Hourly Weather History & Observations

Time (EST) Temp. Windchill Dew Point Humidity Pressure Visibility Wind Dir Wind Speed Gust Speed Precip Events Conditions
12:53 AM 24.1 °F 16.0 °F 17.1 °F 75% 30.06 in 10.0 mi North 6.9 mph - 0.00 in   Overcast
1:53 AM 24.1 °F 17.0 °F 17.1 °F 75% 30.06 in 10.0 mi NNW 5.8 mph - N/A   Overcast
2:53 AM 24.1 °F 18.2 °F 17.1 °F 75% 30.04 in 10.0 mi North 4.6 mph - 0.00 in   Overcast
3:53 AM 23.0 °F 12.4 °F 15.1 °F 72% 30.04 in 10.0 mi North 10.4 mph - N/A   Overcast
4:35 AM 23.0 °F 15.8 °F 15.8 °F 74% 30.01 in 9.0 mi NW 5.8 mph - N/A   Overcast
4:53 AM 23.0 °F 13.9 °F 17.1 °F 78% 30.04 in 8.0 mi NW 8.1 mph - 0.00 in Snow Light Snow
5:53 AM 23.0 °F 12.4 °F 17.1 °F 78% 30.05 in 9.0 mi NW 10.4 mph - 0.00 in   Overcast
6:53 AM 23.0 °F 17.0 °F 16.0 °F 74% 30.04 in 10.0 mi NNW 4.6 mph - 0.00 in   Overcast
7:53 AM 23.0 °F 12.4 °F 14.0 °F 68% 30.05 in 10.0 mi NW 10.4 mph - N/A   Overcast
8:53 AM 23.0 °F 11.7 °F 12.0 °F 63% 30.06 in 10.0 mi NW 11.5 mph - N/A   Overcast
9:53 AM 24.1 °F 12.5 °F 12.9 °F 62% 30.06 in 10.0 mi WNW 12.7 mph - N/A   Overcast
10:31 AM 24.8 °F 14.0 °F 12.2 °F 59% 30.03 in 10.0 mi NW 11.5 mph - N/A   Overcast
10:53 AM 24.1 °F 13.7 °F 12.9 °F 62% 30.06 in 10.0 mi NW 10.4 mph - N/A   Overcast
11:53 AM 25.0 °F 15.5 °F 14.0 °F 63% 30.06 in 10.0 mi NW 9.2 mph - N/A   Overcast
12:53 PM 25.0 °F 14.8 °F 14.0 °F 63% 30.05 in 10.0 mi NW 10.4 mph - N/A   Overcast
1:53 PM 27.0 °F 17.3 °F 15.1 °F 61% 30.02 in 10.0 mi NW 10.4 mph - N/A   Overcast
2:40 PM 28.4 °F 19.1 °F 15.8 °F 59% 29.99 in 10.0 mi NW 10.4 mph - N/A   Overcast
2:53 PM 28.9 °F 19.2 °F 16.0 °F 58% 30.02 in 10.0 mi NW 11.5 mph - N/A   Mostly Cloudy
3:53 PM 30.9 °F 22.8 °F 17.1 °F 57% 30.01 in 10.0 mi NNW 9.2 mph - N/A   Scattered Clouds
4:53 PM 28.9 °F 21.1 °F 14.0 °F 54% 30.02 in 10.0 mi WNW 8.1 mph - N/A   Scattered Clouds
5:53 PM 28.0 °F 18.1 °F 14.0 °F 56% 30.03 in 10.0 mi NW 11.5 mph - N/A   Mostly Cloudy
6:53 PM 26.1 °F 18.4 °F 14.0 °F 60% 30.05 in 10.0 mi NNW 6.9 mph - N/A   Clear
7:53 PM 26.1 °F - 14.0 °F 60% 30.06 in 10.0 mi Calm Calm - N/A   Clear
8:53 PM 26.1 °F 21.9 °F 14.0 °F 60% 30.07 in 6.0 mi NNW 3.5 mph - N/A   Haze
9:53 PM 24.1 °F - 17.1 °F 75% 30.07 in 10.0 mi Calm Calm - N/A   Partly Cloudy
10:53 PM 21.9 °F 17.2 °F 16.0 °F 78% 30.06 in 10.0 mi WSW 3.5 mph - N/A   Clear
11:53 PM 21.9 °F 17.2 °F 15.1 °F 75% 30.07 in 10.0 mi WNW 3.5 mph - N/A   Clear